| time (UTC) | temp F | wind direction | speed MPH | gust MPH | rain 1hr in | rain 24hr in | rain mn in | humidity % | barometer mb |
| 20260510163041 | 65 | 330 | 4.0 | 9.0 | 0.00 | 0.44 | 0.00 | 65 | 1011.5 |
| 20260510161548 | 64 | 350 | 4.0 | 11.0 | 0.00 | 0.44 | 0.00 | 67 | 1011.6 |
| 20260510160050 | 65 | 67 | 2.0 | 8.0 | 0.00 | 0.44 | 0.00 | 69 | 1011.6 |
| 20260510154542 | 63 | 87 | 2.0 | 6.0 | 0.00 | 0.49 | 0.00 | 72 | 1011.7 |
| 20260510153041 | 62 | 42 | 4.0 | 9.0 | 0.00 | 0.49 | 0.00 | 74 | 1011.6 |
| 20260510151550 | 60 | 17 | 3.0 | 6.0 | 0.00 | 0.49 | 0.00 | 78 | 1012.0 |
| 20260510150045 | 59 | 44 | 0.0 | 4.0 | 0.00 | 0.49 | 0.00 | 81 | 1011.6 |
| 20260510144547 | 58 | 18 | 2.0 | 7.0 | 0.00 | 0.52 | 0.00 | 83 | 1012.0 |
| 20260510143046 | 57 | 48 | 3.0 | 7.0 | 0.00 | 0.52 | 0.00 | 84 | 1012.1 |
| 20260510141552 | 55 | 25 | 1.0 | 6.0 | 0.00 | 0.52 | 0.00 | 87 | 1012.1 |
| 20260510140054 | 55 | 49 | 2.0 | 8.0 | 0.00 | 0.52 | 0.00 | 89 | 1012.2 |
| 20260510134542 | 54 | 25 | 4.0 | 6.0 | 0.00 | 0.54 | 0.00 | 90 | 1012.2 |
| 20260510133047 | 53 | 333 | 2.0 | 6.0 | 0.00 | 0.54 | 0.00 | 92 | 1012.1 |
| 20260510131547 | 52 | 356 | 2.0 | 4.0 | 0.00 | 0.54 | 0.00 | 93 | 1012.0 |
| 20260510130046 | 52 | 34 | 2.0 | 6.0 | 0.00 | 0.54 | 0.00 | 94 | 1011.9 |
| 20260510124553 | 51 | 34 | 1.0 | 6.0 | 0.00 | 0.58 | 0.00 | 95 | 1012.1 |
| 20260510123050 | 51 | 3 | 2.0 | 4.0 | 0.00 | 0.58 | 0.00 | 95 | 1012.1 |
| 20260510121541 | 51 | 350 | 3.0 | 5.0 | 0.00 | 0.58 | 0.00 | 95 | 1012.1 |
| 20260510120047 | 50 | 0 | 0.0 | 1.0 | 0.00 | 0.58 | 0.00 | 96 | 1012.4 |
| 20260510114545 | 50 | 332 | 2.0 | 6.0 | 0.00 | 0.58 | 0.00 | 96 | 1012.0 |
| 20260510113043 | 50 | 9 | 2.0 | 6.0 | 0.00 | 0.58 | 0.00 | 96 | 1012.0 |
| 20260510111540 | 50 | 24 | 0.0 | 5.0 | 0.00 | 0.58 | 0.00 | 96 | 1011.6 |
| 20260510110050 | 50 | 297 | 0.0 | 3.0 | 0.00 | 0.58 | 0.00 | 96 | 1011.6 |
| 20260510104548 | 49 | 44 | 0.0 | 3.0 | 0.00 | 0.58 | 0.00 | 96 | 1011.4 |
| 20260510103057 | 49 | 0 | 0.0 | 1.0 | 0.00 | 0.58 | 0.00 | 96 | 1011.0 |
| 20260510101550 | 49 | 60 | 0.0 | 2.0 | 0.00 | 0.58 | 0.00 | 96 | 1011.0 |
| 20260510100044 | 49 | 18 | 0.0 | 2.0 | 0.00 | 0.58 | 0.00 | 96 | 1010.5 |
| 20260510094545 | 49 | 0 | 0.0 | 0.0 | 0.00 | 0.58 | 0.00 | 97 | 1010.6 |
| 20260510093048 | 48 | 0 | 0.0 | 0.0 | 0.00 | 0.58 | 0.00 | 97 | 1010.6 |
| 20260510091547 | 48 | 0 | 0.0 | 0.0 | 0.00 | 0.58 | 0.00 | 97 | 1010.4 |
| 20260510090056 | 47 | 0 | 0.0 | 0.0 | 0.00 | 0.58 | 0.00 | 96 | 1010.8 |
| 20260510084545 | 47 | 0 | 0.0 | 0.0 | 0.00 | 0.58 | 0.00 | 96 | 1010.7 |
| 20260510083041 | 47 | 0 | 0.0 | 0.0 | 0.00 | 0.58 | 0.00 | 96 | 1010.9 |
| 20260510081602 | 47 | 0 | 0.0 | 0.0 | 0.00 | 0.58 | 0.00 | 96 | 1010.8 |
| 20260510080050 | 47 | 0 | 0.0 | 0.0 | 0.00 | 0.58 | 0.00 | 96 | 1010.7 |
| 20260510074547 | 46 | 0 | 0.0 | 0.0 | 0.00 | 0.58 | 0.00 | 96 | 1010.6 |
| 20260510073049 | 46 | 0 | 0.0 | 0.0 | 0.00 | 0.58 | 0.00 | 96 | 1010.7 |
| 20260510071546 | 46 | 0 | 0.0 | 0.0 | 0.00 | 0.58 | 0.00 | 96 | 1010.6 |
| 20260510070047 | 46 | 0 | 0.0 | 0.0 | 0.00 | 0.58 | 0.00 | 96 | 1010.6 |
| 20260510064541 | 46 | 0 | 0.0 | 0.0 | 0.00 | 0.58 | 0.00 | 96 | 1010.6 |
| 20260510063048 | 46 | 0 | 0.0 | 0.0 | 0.00 | 0.58 | 0.00 | 96 | 1010.8 |
| 20260510061557 | 46 | 0 | 0.0 | 0.0 | 0.00 | 0.58 | 0.00 | 96 | 1010.7 |
| 20260510060047 | 46 | 0 | 0.0 | 0.0 | 0.00 | 0.58 | 0.00 | 96 | 1010.5 |
| 20260510054557 | 46 | 0 | 0.0 | 0.0 | 0.00 | 0.58 | 0.00 | 96 | 1010.9 |
| 20260510053045 | 46 | 0 | 0.0 | 0.0 | 0.00 | 0.58 | 0.00 | 96 | 1010.7 |
| 20260510051548 | 46 | 0 | 0.0 | 0.0 | 0.00 | 0.58 | 0.00 | 96 | 1010.9 |
| 20260510050053 | 46 | 0 | 0.0 | 0.0 | 0.00 | 0.58 | 0.00 | 96 | 1011.0 |
| 20260510044548 | 46 | 0 | 0.0 | 0.0 | 0.00 | 0.58 | 0.00 | 96 | 1011.2 |
| 20260510043047 | 46 | 0 | 0.0 | 0.0 | 0.00 | 0.58 | 0.00 | 96 | 1011.1 |
| 20260510041601 | 46 | 0 | 0.0 | 0.0 | 0.00 | 0.58 | 0.00 | 96 | 1011.3 |
| 20260510040042 | 46 | 0 | 0.0 | 0.0 | 0.00 | 0.58 | 0.00 | 96 | 1011.1 |
| 20260510034545 | 46 | 0 | 0.0 | 0.0 | 0.00 | 0.58 | 0.58 | 96 | 1011.1 |
| 20260510033052 | 46 | 0 | 0.0 | 0.0 | 0.00 | 0.58 | 0.58 | 96 | 1011.4 |
| 20260510031553 | 46 | 0 | 0.0 | 0.0 | 0.00 | 0.58 | 0.58 | 96 | 1011.6 |
| 20260510030046 | 46 | 0 | 0.0 | 0.0 | 0.00 | 0.58 | 0.58 | 96 | 1011.7 |
| 20260510024604 | 46 | 0 | 0.0 | 0.0 | 0.00 | 0.58 | 0.58 | 96 | 1011.7 |
| 20260510023041 | 45 | 0 | 0.0 | 0.0 | 0.00 | 0.58 | 0.58 | 96 | 1011.9 |
| 20260510021547 | 45 | 0 | 0.0 | 0.0 | 0.00 | 0.58 | 0.58 | 96 | 1011.9 |
| 20260510020047 | 45 | 0 | 0.0 | 0.0 | 0.00 | 0.58 | 0.58 | 96 | 1011.9 |
| 20260510014608 | 45 | 0 | 0.0 | 0.0 | 0.00 | 0.58 | 0.58 | 96 | 1012.1 |
| 20260510013059 | 45 | 0 | 0.0 | 0.0 | 0.00 | 0.58 | 0.58 | 95 | 1012.1 |
| 20260510011544 | 45 | 0 | 0.0 | 0.0 | 0.00 | 0.58 | 0.58 | 95 | 1011.7 |
| 20260510010041 | 45 | 0 | 0.0 | 0.0 | 0.00 | 0.58 | 0.58 | 95 | 1011.6 |
| 20260510004547 | 45 | 0 | 0.0 | 0.0 | 0.00 | 0.58 | 0.58 | 95 | 1011.6 |
| 20260510003048 | 45 | 0 | 0.0 | 0.0 | 0.00 | 0.58 | 0.58 | 95 | 1011.4 |
| 20260510001546 | 45 | 0 | 0.0 | 0.0 | 0.00 | 0.58 | 0.58 | 95 | 1011.4 |
| 20260510000046 | 45 | 0 | 0.0 | 0.0 | 0.00 | 0.58 | 0.58 | 95 | 1011.4 |
| 20260509234543 | 45 | 0 | 0.0 | 0.0 | 0.00 | 0.58 | 0.58 | 95 | 1011.4 |
| 20260509233043 | 45 | 0 | 0.0 | 0.0 | 0.00 | 0.58 | 0.58 | 95 | 1011.3 |
| 20260509231546 | 46 | 0 | 0.0 | 0.0 | 0.00 | 0.58 | 0.58 | 95 | 1011.2 |
| 20260509230048 | 45 | 0 | 0.0 | 0.0 | 0.01 | 0.58 | 0.58 | 95 | 1011.2 |
| 20260509224546 | 45 | 0 | 0.0 | 0.0 | 0.02 | 0.58 | 0.58 | 95 | 1011.2 |
| 20260509223051 | 45 | 0 | 0.0 | 0.0 | 0.03 | 0.58 | 0.58 | 95 | 1011.2 |
| 20260509221547 | 45 | 0 | 0.0 | 0.0 | 0.04 | 0.58 | 0.58 | 95 | 1011.2 |
| 20260509220045 | 45 | 0 | 0.0 | 1.0 | 0.05 | 0.58 | 0.58 | 95 | 1011.2 |
| 20260509214542 | 45 | 131 | 0.0 | 1.0 | 0.06 | 0.57 | 0.57 | 95 | 1011.5 |
| 20260509213049 | 45 | 0 | 0.0 | 2.0 | 0.07 | 0.56 | 0.56 | 95 | 1011.7 |
| 20260509211554 | 45 | 127 | 0.0 | 1.0 | 0.09 | 0.55 | 0.55 | 95 | 1011.8 |
| 20260509210054 | 45 | 0 | 0.0 | 1.0 | 0.08 | 0.52 | 0.52 | 95 | 1012.0 |
| 20260509204547 | 45 | 0 | 0.0 | 0.0 | 0.08 | 0.51 | 0.51 | 95 | 1012.1 |
| 20260509203044 | 45 | 0 | 0.0 | 0.0 | 0.08 | 0.49 | 0.49 | 95 | 1012.1 |
| 20260509201542 | 45 | 0 | 0.0 | 0.0 | 0.06 | 0.46 | 0.46 | 94 | 1012.3 |
| 20260509200047 | 45 | 0 | 0.0 | 3.0 | 0.06 | 0.45 | 0.45 | 94 | 1012.2 |
| 20260509194546 | 45 | 0 | 0.0 | 2.0 | 0.05 | 0.43 | 0.43 | 94 | 1012.0 |
| 20260509193047 | 45 | 0 | 0.0 | 2.0 | 0.03 | 0.41 | 0.41 | 94 | 1012.1 |
| 20260509191546 | 45 | 0 | 0.0 | 0.0 | 0.04 | 0.40 | 0.40 | 94 | 1012.0 |
| 20260509190051 | 45 | 0 | 0.0 | 2.0 | 0.05 | 0.39 | 0.39 | 94 | 1012.3 |
| 20260509184546 | 45 | 0 | 0.0 | 0.0 | 0.07 | 0.38 | 0.38 | 94 | 1012.3 |
| 20260509183043 | 45 | 0 | 0.0 | 0.0 | 0.09 | 0.38 | 0.38 | 94 | 1012.3 |
| 20260509181544 | 44 | 0 | 0.0 | 1.0 | 0.09 | 0.36 | 0.36 | 93 | 1012.5 |
| 20260509180045 | 44 | 0 | 0.0 | 1.0 | 0.09 | 0.34 | 0.34 | 93 | 1012.8 |
| 20260509174541 | 44 | 86 | 1.0 | 2.0 | 0.08 | 0.31 | 0.31 | 92 | 1013.0 |
| 20260509173114 | 45 | 0 | 0.0 | 2.0 | 0.09 | 0.29 | 0.29 | 92 | 1013.0 |
| 20260509171548 | 45 | 0 | 0.0 | 0.0 | 0.10 | 0.27 | 0.27 | 92 | 1013.2 |
| 20260509170055 | 45 | 0 | 0.0 | 0.0 | 0.09 | 0.25 | 0.25 | 93 | 1013.3 |
| 20260509164544 | 45 | 0 | 0.0 | 0.0 | 0.09 | 0.23 | 0.23 | 93 | 1013.3 |